GBGHW EGLC-LIEE

Flight info

Callsign GBGHW
Flight time N/A
Altitude 45000
Route ODUKU1H ODUKU DCT SFD UY47 BENBO UL612 RESMI UM975 PEKIM DCT LUSAR DCT LURAG DCT NOPMU DCT GOPAT DCT KOVAS KOVAS1W
Aircraft C750/M-SBDE3FGHRWXY/S

Departure

Time N/A
Airport London City Airport (EGLC)

Arrival

Time 2026-05-07 15:31
Airport Cagliari Elmas Airport (LIEE)
Time Latitude Longitude Altitude Speed Heading
2026-05-07 14:50 41.04037 8.55506 43687 ft 475 kts 170°
2026-05-07 14:51 41.00899 8.56697 43069 ft 462 kts 171°
2026-05-07 14:51 40.97848 8.57851 42469 ft 451 kts 172°
2026-05-07 14:51 40.94865 8.58971 41879 ft 440 kts 172°
2026-05-07 14:51 40.91954 8.60064 41294 ft 430 kts 173°
2026-05-07 14:52 40.89099 8.61137 40744 ft 424 kts 173°
2026-05-07 14:52 40.86270 8.62198 40189 ft 421 kts 174°
2026-05-07 14:52 40.83449 8.63254 39632 ft 421 kts 174°
2026-05-07 14:52 40.80631 8.64310 39059 ft 421 kts 175°
2026-05-07 14:53 40.77823 8.65366 38487 ft 418 kts 176°
2026-05-07 14:53 40.75047 8.66410 37920 ft 413 kts 175°
2026-05-07 14:53 40.72271 8.67440 37371 ft 417 kts 175°
2026-05-07 14:53 40.69454 8.68482 36818 ft 423 kts 175°
2026-05-07 14:54 40.66613 8.69547 36256 ft 427 kts 174°
2026-05-07 14:54 40.63748 8.70625 35694 ft 429 kts 174°
2026-05-07 14:54 40.60863 8.71699 35126 ft 432 kts 174°
2026-05-07 14:54 40.57958 8.72776 34545 ft 437 kts 174°
2026-05-07 14:55 40.55019 8.73869 33977 ft 440 kts 173°
2026-05-07 14:55 40.52064 8.74972 33353 ft 442 kts 173°
2026-05-07 14:55 40.49141 8.76060 32780 ft 443 kts 173°
2026-05-07 14:55 40.46179 8.77157 32196 ft 443 kts 172°
2026-05-07 14:56 40.43205 8.78258 31609 ft 444 kts 172°
2026-05-07 14:56 40.40190 8.79375 31013 ft 446 kts 171°
2026-05-07 14:56 40.37198 8.80483 30426 ft 448 kts 171°
2026-05-07 14:56 40.34255 8.81572 29814 ft 444 kts 171°
2026-05-07 14:57 40.31299 8.82668 29221 ft 439 kts 171°
2026-05-07 14:57 40.28359 8.83750 28639 ft 438 kts 171°
2026-05-07 14:57 40.25432 8.84826 28064 ft 437 kts 170°
2026-05-07 14:57 40.22509 8.85904 27489 ft 435 kts 170°
2026-05-07 14:58 40.19604 8.86975 26918 ft 433 kts 170°
2026-05-07 14:58 40.16708 8.88039 26350 ft 432 kts 170°
2026-05-07 14:58 40.13822 8.89097 25777 ft 430 kts 169°
2026-05-07 14:58 40.10948 8.90153 25201 ft 426 kts 169°
2026-05-07 14:59 40.08097 8.91201 24651 ft 426 kts 169°
2026-05-07 14:59 40.05261 8.92239 24095 ft 423 kts 169°
2026-05-07 14:59 40.02423 8.93276 23532 ft 422 kts 168°
2026-05-07 14:59 39.99614 8.94305 22939 ft 417 kts 168°
2026-05-07 15:00 39.96836 8.95323 22390 ft 412 kts 168°
2026-05-07 15:00 39.94083 8.96326 21845 ft 408 kts 168°
2026-05-07 15:00 39.91359 8.97319 21304 ft 404 kts 168°
2026-05-07 15:00 39.88670 8.98299 20772 ft 400 kts 167°
2026-05-07 15:01 39.86000 8.99273 20246 ft 396 kts 167°
2026-05-07 15:01 39.83357 9.00235 19726 ft 392 kts 167°
2026-05-07 15:01 39.80744 9.01184 19212 ft 389 kts 167°
2026-05-07 15:01 39.78151 9.02127 18702 ft 385 kts 167°
2026-05-07 15:02 39.75579 9.03061 18185 ft 382 kts 167°
2026-05-07 15:02 39.73030 9.03986 17651 ft 379 kts 166°
2026-05-07 15:02 39.70501 9.04903 17146 ft 377 kts 166°
2026-05-07 15:02 39.67980 9.05815 16653 ft 374 kts 166°
2026-05-07 15:03 39.65471 9.06736 16158 ft 375 kts 165°
2026-05-07 15:03 39.63131 9.08202 15644 ft 374 kts 149°
2026-05-07 15:03 39.60952 9.10043 15180 ft 372 kts 149°
2026-05-07 15:03 39.58784 9.11842 14697 ft 369 kts 150°
2026-05-07 15:04 39.56618 9.13604 14212 ft 366 kts 150°
2026-05-07 15:04 39.54467 9.15367 13723 ft 365 kts 150°
2026-05-07 15:04 39.52352 9.17122 13217 ft 351 kts 150°
2026-05-07 15:04 39.50374 9.18760 12866 ft 324 kts 150°
2026-05-07 15:05 39.48540 9.20262 12593 ft 301 kts 150°
2026-05-07 15:05 39.46818 9.21670 12279 ft 285 kts 149°
2026-05-07 15:05 39.45167 9.23025 11960 ft 277 kts 150°
2026-05-07 15:05 39.43548 9.24354 11620 ft 275 kts 150°
2026-05-07 15:06 39.41937 9.25673 11272 ft 274 kts 149°
2026-05-07 15:06 39.40318 9.26999 10939 ft 276 kts 149°
2026-05-07 15:06 39.38697 9.28332 10573 ft 276 kts 148°
2026-05-07 15:06 39.37090 9.29650 10187 ft 270 kts 148°
2026-05-07 15:07 39.35521 9.30930 9844 ft 266 kts 147°
2026-05-07 15:07 39.35155 9.31229 9770 ft 266 kts 147°
2026-05-07 15:20 39.34780 9.31535 9682 ft 266 kts 147°
2026-05-07 15:20 39.33212 9.32818 9335 ft 267 kts 147°
2026-05-07 15:20 39.31632 9.34110 8988 ft 269 kts 147°
2026-05-07 15:21 39.30058 9.35391 8611 ft 265 kts 147°
2026-05-07 15:21 39.28513 9.36655 8216 ft 261 kts 146°
2026-05-07 15:21 39.26990 9.37894 7863 ft 259 kts 147°
2026-05-07 15:21 39.25458 9.39144 7436 ft 260 kts 147°
2026-05-07 15:22 39.23947 9.40382 7020 ft 261 kts 146°
2026-05-07 15:22 39.22410 9.41633 6659 ft 255 kts 146°
2026-05-07 15:22 39.20944 9.42823 6636 ft 246 kts 147°
2026-05-07 15:22 39.19536 9.43970 6404 ft 234 kts 145°
2026-05-07 15:23 39.18164 9.45089 6095 ft 234 kts 145°
2026-05-07 15:23 39.16794 9.46204 5773 ft 231 kts 144°
2026-05-07 15:23 39.15372 9.47141 5407 ft 233 kts 159°
2026-05-07 15:23 39.13752 9.47216 5059 ft 236 kts 186°
2026-05-07 15:24 39.12279 9.46343 4911 ft 231 kts 213°
2026-05-07 15:24 39.11273 9.44786 4914 ft 227 kts 240°
2026-05-07 15:24 39.10884 9.42833 4925 ft 227 kts 265°
2026-05-07 15:24 39.10822 9.40795 4953 ft 230 kts 267°
2026-05-07 15:25 39.10751 9.38700 4855 ft 237 kts 266°
2026-05-07 15:25 39.10678 9.36569 4674 ft 239 kts 266°
2026-05-07 15:25 39.10610 9.34445 4461 ft 236 kts 266°
2026-05-07 15:25 39.10541 9.32339 4241 ft 234 kts 267°
2026-05-07 15:26 39.10472 9.30261 4036 ft 231 kts 267°
2026-05-07 15:26 39.10403 9.28191 3835 ft 232 kts 267°
2026-05-07 15:26 39.10318 9.26111 3623 ft 233 kts 266°
2026-05-07 15:26 39.10234 9.24035 3420 ft 232 kts 271°
2026-05-07 15:27 39.10769 9.22128 3103 ft 227 kts 311°
2026-05-07 15:27 39.11877 9.20782 2975 ft 211 kts 324°
2026-05-07 15:27 39.12945 9.19572 2830 ft 198 kts 323°
2026-05-07 15:27 39.13946 9.18409 2679 ft 190 kts 323°
2026-05-07 15:28 39.14913 9.17285 2445 ft 182 kts 323°
2026-05-07 15:28 39.15843 9.16202 2209 ft 178 kts 323°
2026-05-07 15:28 39.16715 9.15189 1984 ft 163 kts 325°
2026-05-07 15:28 39.17563 9.14221 1776 ft 163 kts 324°
2026-05-07 15:29 39.18390 9.13257 1562 ft 152 kts 325°
2026-05-07 15:29 39.19133 9.12395 1368 ft 139 kts 327°
2026-05-07 15:29 39.19852 9.11570 1186 ft 138 kts 326°
2026-05-07 15:29 39.20572 9.10738 1008 ft 141 kts 325°
2026-05-07 15:30 39.21303 9.09880 818 ft 143 kts 322°
2026-05-07 15:30 39.22045 9.09023 630 ft 144 kts 321°
2026-05-07 15:30 39.22794 9.08169 425 ft 143 kts 315°
2026-05-07 15:30 39.23529 9.07305 237 ft 142 kts 314°
2026-05-07 15:31 39.24247 9.06475 42 ft 136 kts 316°
2026-05-07 15:31 39.24889 9.05725 13 ft 109 kts 316°
2026-05-07 15:31 39.25285 9.05269 10 ft 35 kts 317°
2026-05-07 15:31 39.25344 9.05240 10 ft 0 kts 133°
2026-05-07 15:32 39.25338 9.05245 10 ft 3 kts 144°
2026-05-07 15:32 39.25309 9.05274 -6 ft 7 kts 131°
2026-05-07 15:32 39.25323 9.05335 9 ft 9 kts 46°
2026-05-07 15:32 39.25371 9.05422 10 ft 12 kts 98°
2026-05-07 15:33 39.25313 9.05510 10 ft 15 kts 138°
2026-05-07 15:33 39.25224 9.05614 11 ft 19 kts 138°
2026-05-07 15:33 39.25131 9.05722 11 ft 13 kts 137°
2026-05-07 15:33 39.25137 9.05807 11 ft 9 kts 61°
2026-05-07 15:34 39.25156 9.05873 11 ft 7 kts 106°
2026-05-07 15:34 39.25138 9.05896 11 ft 2 kts 122°
2026-05-07 15:34 39.25148 9.05934 10 ft 8 kts 50°
2026-05-07 15:34 39.25203 9.06024 11 ft 14 kts 52°
2026-05-07 15:35 39.25215 9.06074 11 ft 1 kts 137°
2026-05-07 15:35 39.25205 9.06083 9 ft 2 kts 143°
2026-05-07 15:35 39.25190 9.06099 12 ft 3 kts 141°
2026-05-07 15:35 39.25176 9.06113 11 ft 0 kts 142°